Total_Precipitation_Accumulation
0.00 0.01 0.02 0.03 0.05 0.06 0.05 0.06 0.10 0.08 0.08 0.04 0.01 0.01 0.01 0.00 0.00 0.00 0.00 0.01 0.01 0.01 0.01 0.01 0.01 0.01 0.01 0.01 0.01 0.02 0.04 0.08 0.08 0.06 0.05 0.04 0.06 0.08 0.10 0.10 0.10 0.13 0.17 0.21
0.00 0.01 0.01 0.03 0.06 0.05 0.02 0.02 0.02 0.02 0.03 0.01 0.02 0.02 0.02 0.02 0.02 0.02 0.02 0.02 0.02 0.02 0.02 0.01 0.01 0.01 0.01 0.01 0.01 0.04 0.07 0.12 0.16 0.12 0.06 0.04 0.04 0.04 0.05 0.05 0.06 0.10 0.13 0.16
0.01 0.01 0.02 0.08 0.06 0.03 0.01 0.02 0.03 0.04 0.05 0.04 0.05 0.05 0.07 0.07 0.06 0.05 0.04 0.03 0.02 0.01 0.01 0.01 0.01 0.01 0.02 0.02 0.02 0.08 0.12 0.10 0.17 0.17 0.07 0.03 0.03 0.04 0.06 0.05 0.07 0.10 0.12 0.13
0.01 0.01 0.06 0.07 0.02 0.01 0.01 0.02 0.03 0.05 0.06 0.08 0.09 0.09 0.09 0.10 0.08 0.04 0.02 0.01 0.00 0.00 0.00 0.00 0.00 0.00 0.02 0.04 0.04 0.11 0.14 0.11 0.16 0.18 0.09 0.08 0.08 0.09 0.08 0.08 0.10 0.13 0.14 0.13
0.00 0.01 0.05 0.03 0.02 0.03 0.04 0.05 0.06 0.08 0.11 0.11 0.09 0.06 0.04 0.03 0.02 0.01 0.00 0.00 0.00 0.00 0.00 0.00 0.01 0.01 0.02 0.07 0.10 0.11 0.13 0.12 0.17 0.23 0.17 0.16 0.16 0.18 0.18 0.19 0.20 0.19 0.18 0.17
0.01 0.01 0.04 0.04 0.04 0.06 0.07 0.14 0.12 0.09 0.07 0.04 0.02 0.03 0.01 0.00 0.00 0.00 0.00 0.00 0.00 0.00 0.00 0.01 0.01 0.03 0.04 0.06 0.11 0.13 0.13 0.15 0.20 0.31 0.33 0.29 0.27 0.27 0.26 0.31 0.33 0.31 0.27 0.22
0.02 0.04 0.06 0.02 0.04 0.05 0.12 0.15 0.05 0.02 0.02 0.02 0.02 0.03 0.01 0.00 0.01 0.01 0.00 0.00 0.01 0.01 0.01 0.02 0.03 0.06 0.10 0.11 0.13 0.15 0.18 0.21 0.26 0.36 0.47 0.45 0.42 0.38 0.36 0.37 0.42 0.46 0.46 0.39
0.03 0.07 0.11 0.02 0.02 0.05 0.06 0.04 0.02 0.02 0.02 0.02 0.02 0.01 0.01 0.01 0.01 0.01 0.01 0.01 0.02 0.03 0.04 0.05 0.08 0.14 0.20 0.20 0.20 0.23 0.25 0.28 0.33 0.43 0.46 0.49 0.51 0.53 0.56 0.55 0.57 0.60 0.62 0.57
0.04 0.07 0.03 0.00 0.01 0.02 0.02 0.02 0.02 0.02 0.02 0.02 0.02 0.02 0.02 0.03 0.02 0.02 0.01 0.02 0.03 0.05 0.08 0.11 0.15 0.25 0.32 0.33 0.35 0.35 0.34 0.34 0.38 0.45 0.54 0.64 0.65 0.62 0.65 0.69 0.71 0.75 0.76 0.70
0.03 0.02 0.01 0.01 0.01 0.02 0.01 0.02 0.02 0.01 0.01 0.01 0.03 0.04 0.05 0.05 0.04 0.03 0.03 0.03 0.04 0.07 0.12 0.16 0.24 0.35 0.43 0.46 0.47 0.46 0.41 0.38 0.42 0.49 0.56 0.66 0.78 0.79 0.81 0.81 0.83 0.89 0.88 0.79
0.02 0.01 0.00 0.01 0.01 0.01 0.01 0.01 0.01 0.00 0.01 0.02 0.04 0.05 0.06 0.06 0.06 0.05 0.04 0.04 0.06 0.10 0.16 0.19 0.29 0.43 0.50 0.53 0.56 0.54 0.48 0.42 0.43 0.48 0.53 0.60 0.71 0.79 0.84 0.85 0.84 0.87 0.88 0.80
0.01 0.00 0.00 0.01 0.00 0.00 0.00 0.01 0.01 0.01 0.01 0.02 0.03 0.04 0.04 0.05 0.04 0.04 0.04 0.07 0.11 0.15 0.21 0.24 0.30 0.40 0.49 0.62 0.73 0.74 0.64 0.55 0.49 0.47 0.50 0.56 0.63 0.64 0.60 0.65 0.65 0.65 0.68 0.62
0.00 0.00 0.00 0.00 0.00 0.00 0.00 0.00 0.00 0.00 0.00 0.01 0.02 0.02 0.01 0.01 0.02 0.04 0.09 0.15 0.20 0.24 0.27 0.33 0.39 0.45 0.52 0.67 0.85 0.93 0.85 0.70 0.60 0.52 0.49 0.50 0.57 0.61 0.63 0.58 0.58 0.55 0.55 0.48
0.00 0.00 0.00 0.00 0.00 0.00 0.00 0.00 0.00 0.00 0.00 0.00 0.00 0.00 0.01 0.01 0.03 0.09 0.17 0.24 0.28 0.33 0.38 0.44 0.49 0.53 0.60 0.73 0.86 0.93 0.93 0.82 0.68 0.60 0.55 0.51 0.53 0.59 0.67 0.72 0.68 0.56 0.48 0.44
0.00 0.00 0.00 0.00 0.00 0.00 0.00 0.00 0.00 0.00 0.00 0.00 0.00 0.00 0.01 0.04 0.09 0.16 0.25 0.34 0.43 0.47 0.46 0.49 0.55 0.59 0.66 0.79 0.86 0.88 0.87 0.82 0.73 0.66 0.62 0.56 0.52 0.57 0.62 0.69 0.73 0.69 0.57 0.48
0.00 0.00 0.00 0.00 0.00 0.00 0.00 0.00 0.00 0.00 0.00 0.00 0.00 0.01 0.03 0.07 0.13 0.21 0.31 0.47 0.65 0.66 0.57 0.56 0.58 0.60 0.68 0.83 0.88 0.81 0.72 0.59 0.58 0.61 0.60 0.57 0.54 0.56 0.62 0.67 0.70 0.67 0.58 0.48
0.00 0.00 0.00 0.00 0.00 0.00 0.00 0.00 0.00 0.00 0.00 0.01 0.02 0.04 0.07 0.13 0.23 0.36 0.47 0.54 0.63 0.63 0.59 0.55 0.51 0.53 0.65 0.78 0.85 0.76 0.63 0.49 0.38 0.43 0.52 0.56 0.58 0.61 0.67 0.69 0.68 0.62 0.51 0.42
0.00 0.00 0.00 0.00 0.00 0.00 0.00 0.00 0.00 0.00 0.02 0.04 0.07 0.10 0.16 0.27 0.48 0.67 0.72 0.70 0.66 0.56 0.49 0.47 0.42 0.46 0.59 0.66 0.75 0.73 0.59 0.48 0.38 0.38 0.45 0.51 0.59 0.66 0.69 0.64 0.57 0.49 0.42 0.36
0.00 0.00 0.00 0.00 0.00 0.00 0.00 0.00 0.00 0.02 0.05 0.10 0.16 0.20 0.25 0.36 0.58 0.78 0.81 0.88 0.86 0.70 0.50 0.42 0.40 0.44 0.54 0.59 0.66 0.69 0.54 0.40 0.32 0.31 0.34 0.38 0.48 0.60 0.60 0.52 0.43 0.37 0.33 0.28
0.00 0.00 0.00 0.00 0.00 0.00 0.00 0.01 0.03 0.07 0.13 0.22 0.28 0.33 0.39 0.45 0.62 0.82 0.88 0.90 0.86 0.70 0.50 0.41 0.39 0.38 0.44 0.57 0.65 0.63 0.49 0.34 0.24 0.20 0.23 0.31 0.42 0.53 0.49 0.40 0.32 0.29 0.26 0.23
0.00 0.00 0.00 0.00 0.00 0.00 0.01 0.03 0.08 0.17 0.27 0.31 0.35 0.42 0.48 0.53 0.62 0.80 1.01 1.02 0.78 0.56 0.42 0.39 0.38 0.36 0.42 0.56 0.61 0.56 0.46 0.35 0.25 0.19 0.21 0.29 0.40 0.44 0.34 0.24 0.19 0.18 0.17 0.16
0.00 0.00 0.00 0.00 0.01 0.01 0.03 0.06 0.13 0.26 0.39 0.40 0.37 0.41 0.50 0.60 0.67 0.72 0.81 0.95 0.83 0.62 0.43 0.36 0.36 0.38 0.43 0.55 0.55 0.47 0.42 0.37 0.29 0.23 0.23 0.28 0.35 0.33 0.25 0.17 0.13 0.11 0.10 0.10
0.00 0.00 0.01 0.01 0.02 0.03 0.04 0.08 0.16 0.31 0.47 0.49 0.46 0.45 0.53 0.62 0.72 0.88 0.85 0.76 0.76 0.67 0.47 0.34 0.31 0.37 0.43 0.50 0.50 0.41 0.40 0.36 0.29 0.23 0.21 0.23 0.25 0.22 0.17 0.11 0.08 0.06 0.06 0.06
0.00 0.01 0.01 0.02 0.04 0.06 0.10 0.14 0.20 0.29 0.42 0.42 0.35 0.32 0.42 0.57 0.60 0.62 0.71 0.75 0.70 0.65 0.49 0.35 0.26 0.29 0.37 0.40 0.41 0.40 0.40 0.33 0.25 0.20 0.18 0.18 0.18 0.17 0.14 0.11 0.08 0.07 0.06 0.05
0.01 0.01 0.02 0.04 0.09 0.14 0.19 0.25 0.31 0.38 0.47 0.41 0.30 0.22 0.27 0.42 0.56 0.52 0.53 0.57 0.58 0.54 0.43 0.35 0.30 0.32 0.33 0.36 0.39 0.38 0.34 0.25 0.19 0.17 0.17 0.18 0.16 0.14 0.13 0.10 0.07 0.06 0.05 0.06
0.01 0.02 0.03 0.06 0.12 0.17 0.21 0.32 0.41 0.49 0.62 0.57 0.40 0.23 0.20 0.26 0.33 0.37 0.42 0.47 0.50 0.51 0.39 0.29 0.28 0.32 0.34 0.37 0.36 0.33 0.28 0.23 0.20 0.19 0.18 0.19 0.17 0.14 0.13 0.10 0.08 0.07 0.06 0.06
0.02 0.02 0.04 0.09 0.15 0.16 0.19 0.26 0.36 0.53 0.71 0.71 0.49 0.25 0.18 0.20 0.26 0.31 0.35 0.43 0.49 0.50 0.39 0.28 0.24 0.26 0.29 0.30 0.29 0.24 0.19 0.16 0.17 0.16 0.15 0.14 0.14 0.12 0.10 0.09 0.08 0.07 0.07 0.06